{"data":{"norad_id":26400,"intl_designator":"2000-037A","name":"ISS (ZVEZDA)","alt_names":[],"object_type":"PAYLOAD","status":"ACTIVE","operator":null,"country":"ISS","launch_date":"2000-07-12","launch_site_code":"TYMSC","launch_vehicle":null,"mission":null,"orbit_class":"UNKNOWN","rcs_meters":32.94,"size_class":null,"mass_kg":null,"dimensions":null,"purposes":[],"wikipedia_slug":null,"has_3d_model":false,"image_url":null,"decayed_at":null,"tle_current":{"epoch":"2026-05-25T03:56:27.328416Z","epoch_age_seconds":54884,"freshness":"FRESH","line1":"1 26400U 00037A   26145.16420519  .00009873  00000+0  18471-3 0  9998","line2":"2 26400  51.6330  54.0759 0007478  95.4333 264.7509 15.49361343567959","mean_motion":15.49361343,"eccentricity":0.0007478,"inclination_deg":51.633,"raan_deg":54.0759,"arg_perigee_deg":95.4333,"mean_anomaly_deg":264.7509,"bstar":0.00018471,"rev_number":56795,"period_min":92.941521131007,"perigee_km":413.51060446724,"apogee_km":423.67579415333,"semimajor_km":6796.7301993103,"source":"CELESTRAK","updated_at":"2026-05-25T13:37:55.022606Z"}}}